Location: Poughquag
(41.6090°N, 73.6820°W)
Time: 02:10:01
(UTC-04:00)

Transit 2A - Pass Details

Date: 03 June 2020
Orbit: 592 x 967 km, 66.7° (Epoch: 06 July)

Event Time Altitude Azimuth Distance (km) Brightness Sun altitude
Rises 19:59:42 0° 339° (NNW) 3,511 10.3 3.2°
Reaches altitude 10° 20:03:25 10° 2° (N) 2,629 9.2 2.6°
Maximum altitude 20:06:52 15° 36° (NE) 2,313 8.4 2.0°
Drops below altitude 10° 20:10:23 10° 70° (ENE) 2,695 8.5 1.4°
Sets 20:14:15 0° 93° (E) 3,652 8.9 0.8°
